STARLINK-11152, 60194

Orbit data source: Space-Track

STARLINK-11152, 60194 is a payload satellite owned by SpaceX/Seattle (US) in LEO that was launched on Wed, 03 Jul 2024 UTC via an FALCON 9 launch vehicle from the Air Force Eastern Test Range (AFETR). Payload-class satellites include a variety of spacecraft equipped with specific instruments for various scientific and technological missions. These include communications satellites like Starlink; space stations such as the ISS; scientific satellites like the Hubble; Earth observation satellites from companies like Planet Labs, Umbra, and HawkEye 360; GPS; miniature CubeSats for education and research; and military/defense satellites.

Not visible in the next 10 days
Identifier
60194, 2024-124M
Orbit
LEO
Country
Flag of USUS
Related business
Manufacturer
SpaceX/Seattle
Mission
Operational Commercial Communications
Bus & Motor
STARLINK V2MD, Unknown motor
Mass
960 kg wet, ~910 kg dry
Launch date (UTC)
2024-07-03 (1 year ago)
Launch vehicle
FALCON 9
Launch site
Air Force Eastern Test Range (AFETR)
Object type
Payload
Rocket body
Debris
Shape & HBR
Box + 2 Pan, 14.5 m
Radar Cross Section
36.964 m², Large (>1 m²)

Expand to show TLE details & history
Last TLE update: 2 days ago

TLE from 2 days ago
0 STARLINK-11152
1 60194U 24124M   25256.87989765 -.00001796  00000-0 -99730-5 0  9990
2 60194  53.1585 312.8947 0001046  91.7145 268.3993 15.69709882 69955
Epoch: 2025-09-13T21:07Z
TLE epoch observation values (Epoch: 2025-09-13T21:07:03.156Z)
Latitude
-0.00002°
Longitude
3.02462°
Altitude
360.662 km
Speed
7.694 km/s
True Right ascension
20h 51m 34s
True Declination
0° 00' 00"
Sunlit
Object was in full shadow at epoch
Visualization orbit readout
Latitude
Unknown
Longitude
Unknown
Altitude
Unknown
Speed
Unknown
Apparent Right ascension
Unknown
Apparent Declination
Unknown
Sunlit
N/A
Visualization observer readout
Local Sidereal Time
02:06:36
Azimuth
Unknown
Elevation
Unknown
Doppler factor
Unknown
Orbital elements
Apogee altitude
360.693 km
Perigee altitude
359.283 km
Semi-major axis
6,738.125 km
Eccentricity
0.0001
Inclination
53.1585°
RAAN
312.8947°
Arg. of periapsis
91.7145°
True anomaly
268.38732°
Mean anomaly
268.3993°
Eccentric anomaly
268.39331°
Mean motion
3.92405 °/min
Orbital period
91.74 mins
BSTAR
-0.000009973
Loading maneuver chart data...
Computing Atmospheric mass density...
Loading historical data...
Loading historical data...
Loading historical data...
Loading historical data...
Loading historical data...
Loading historical data...
Loading historical data...

Documentation

Showing up to 5 results
|